Wind_Speed
73 73 72 72 71 71 71 71 71 71 71 71 71 71 72 72 72 72 72 72 72 72 73 74 75 76 77 78 78 78 79 79 80 81 81 81 81 82 83 84 85 85
75 75 75 75 74 74 74 74 73 73 73 73 73 73 74 74 74 74 74 75 76 76 77 77 78 79 80 80 81 81 81 81 82 83 83 83 83 84 85 86 87 87
77 77 77 77 77 77 77 76 75 75 76 76 76 76 76 76 76 76 77 78 79 79 80 80 81 82 83 83 84 83 83 83 84 85 85 84 85 86 87 88 89 89
79 79 79 79 79 79 79 78 78 78 79 78 79 79 78 78 78 79 80 80 81 82 83 84 84 85 86 86 86 86 85 85 86 86 86 86 87 88 89 90 91 91
82 82 81 81 81 81 81 81 81 81 81 81 81 81 81 81 81 82 82 83 84 85 86 87 88 88 89 89 89 88 88 87 87 88 88 88 89 90 92 93 93 94
86 85 84 84 84 84 84 84 84 84 84 83 83 83 83 84 84 84 85 85 86 87 88 89 89 90 91 91 90 90 90 89 89 90 90 91 92 93 94 95 96 97
89 89 88 87 87 87 86 87 87 87 86 86 86 85 86 86 86 86 87 87 88 88 89 90 91 91 92 92 92 92 92 92 93 93 93 94 95 95 96 97 98 99
92 92 91 91 90 90 90 90 90 90 89 89 88 89 89 88 88 89 89 89 89 90 90 91 92 93 93 93 94 94 94 95 96 96 96 97 98 98 99 100 100 101
95 95 95 94 94 93 93 93 92 92 92 92 91 91 92 91 91 92 92 92 92 92 92 93 94 94 95 96 96 96 97 98 99 99 100 100 101 101 101 102 102 103
100 99 99 98 98 97 97 96 96 95 95 94 94 94 94 94 94 94 95 95 95 95 95 95 96 97 97 98 98 99 100 100 101 102 102 103 103 104 104 105 105 105
104 103 103 103 102 101 101 101 100 99 99 98 98 98 98 98 98 98 98 98 98 98 98 98 99 99 100 100 101 102 103 103 104 104 104 105 105 106 107 107 107 107
108 107 107 106 106 106 105 105 104 104 103 103 102 102 102 102 102 102 101 101 101 101 102 102 102 103 103 104 105 106 106 106 106 107 107 107 108 108 109 109 110 110
112 111 110 110 110 110 109 109 108 108 107 107 106 106 105 106 106 106 105 105 104 104 105 105 105 106 106 107 108 109 109 109 109 109 109 110 110 111 111 112 112 113
116 115 114 114 113 113 113 113 113 112 111 111 110 110 109 109 109 109 108 108 108 108 108 108 108 108 109 110 111 112 112 112 112 112 112 113 113 114 114 115 115 116
120 119 118 118 117 117 117 117 116 116 116 115 115 114 114 113 113 112 112 112 112 111 111 111 111 111 113 114 115 115 115 115 116 116 116 116 116 117 117 118 118 119
123 123 122 122 121 121 120 120 120 120 120 119 119 118 118 117 116 116 116 116 116 115 115 115 115 115 117 118 118 119 119 119 119 119 120 120 120 120 121 121 121 121
127 127 126 126 126 125 124 124 123 123 123 123 123 122 122 121 120 120 120 120 119 119 119 119 119 120 121 121 122 123 123 123 123 123 123 123 123 123 123 124 123 123
131 130 130 130 129 129 128 128 127 127 127 127 126 126 125 125 124 124 124 124 123 123 123 123 123 124 125 126 126 127 127 127 127 127 126 126 126 126 126 126 125 125
134 133 133 133 133 132 132 131 131 130 130 130 130 129 129 129 128 127 127 127 127 126 126 126 126 127 128 129 129 130 130 130 130 129 129 128 128 128 128 127 126 124
138 136 135 135 135 135 134 134 134 133 133 133 133 133 132 132 132 131 130 130 130 129 129 128 129 130 131 132 131 132 132 133 132 132 131 130 129 128 128 126 125 124
142 141 139 138 138 137 137 137 137 136 136 136 136 135 135 135 134 134 134 133 132 132 131 131 131 132 133 133 132 132 132 133 133 132 131 129 128 127 127 127 126 125
145 144 142 141 140 140 139 139 138 138 138 138 137 136 135 135 135 134 134 134 134 133 133 132 132 132 133 133 133 133 133 132 131 130 129 129 128 128 128 128 127 127
149 148 146 145 143 142 141 140 139 139 138 138 138 138 137 137 135 134 134 134 134 135 135 134 133 133 133 134 134 134 133 132 132 132 131 131 130 130 129 129 128 128
151 151 151 150 149 148 147 145 144 143 142 141 141 141 141 141 140 139 138 137 138 138 138 137 137 136 137 137 136 136 136 135 135 135 134 134 133 132 132 131 130 129
151 151 151 151 150 151 151 151 150 149 147 146 146 145 146 146 146 145 143 142 142 142 141 141 141 141 141 140 140 139 139 139 138 138 137 137 136 136 135 134 133 132
153 152 152 151 150 150 150 151 152 152 152 151 150 150 150 150 149 149 147 146 146 145 145 144 144 144 143 142 142 141 141 141 141 140 140 139 139 138 137 137 136 135
Wind_Direction
270 270 269 269 269 269 269 270 270 271 272 272 273 273 274 275 276 277 277 278 278 279 279 280 281 282 284 285 286 288 289 290 291 292 293 295 296 297 297 298 299 300
270 270 270 270 270 269 269 269 270 271 271 271 272 273 273 274 275 277 277 278 279 279 279 280 281 282 284 285 286 287 288 289 290 291 292 293 294 295 296 297 298 299
269 270 270 270 270 270 270 269 269 269 270 270 271 272 272 273 274 276 276 277 278 279 279 280 281 282 283 284 285 286 287 288 289 290 291 292 293 294 294 295 297 298
269 270 270 270 270 270 270 270 269 269 269 270 270 271 271 272 273 274 275 276 277 278 279 280 281 282 283 284 284 286 287 288 288 289 290 291 292 293 294 295 296 297
269 270 270 270 271 271 271 270 270 270 270 270 270 270 271 271 272 273 274 275 276 277 278 279 280 281 282 283 284 285 286 287 288 288 289 290 291 292 293 294 295 296
269 269 270 270 270 271 271 271 271 271 271 270 270 271 271 271 271 272 273 273 274 276 277 278 279 280 281 282 284 285 285 286 287 287 288 290 290 292 293 294 295 295
268 269 269 269 270 270 270 271 271 271 272 272 272 272 272 272 272 272 272 273 274 275 276 277 278 280 281 282 283 284 285 285 286 287 288 289 290 291 292 293 294 295
268 269 269 269 269 269 270 270 270 271 271 272 272 272 273 273 273 273 273 274 274 275 276 277 278 279 280 281 282 283 284 285 285 286 287 288 288 289 290 291 293 294
268 268 269 269 269 269 269 270 270 270 271 271 272 272 273 273 273 274 274 274 275 275 276 276 277 278 279 280 281 282 283 284 284 285 286 287 288 289 290 291 292 293
268 269 269 269 269 269 269 269 269 270 270 270 271 271 272 272 273 273 274 274 275 275 276 276 277 278 279 280 281 281 282 283 283 284 285 286 288 289 290 291 292 293
268 269 269 269 270 270 270 270 270 270 270 270 271 271 271 272 272 273 273 273 274 275 275 276 277 277 278 279 280 280 281 282 283 284 285 286 287 288 289 290 291 292
268 268 269 269 270 270 270 270 270 270 271 271 271 271 271 272 272 272 273 273 274 274 275 276 276 277 278 279 279 280 281 282 283 284 285 286 287 288 288 289 290 290
268 268 268 269 269 270 270 271 271 271 271 271 271 272 272 272 272 273 273 274 274 275 275 276 277 277 278 279 279 280 281 282 282 283 284 285 286 287 287 288 289 290
268 268 268 269 269 270 270 271 271 271 272 272 272 272 272 273 273 273 274 274 275 275 276 277 277 278 278 279 279 280 281 281 282 283 284 284 285 286 287 288 289 289
268 268 268 268 269 269 270 271 271 272 272 272 272 273 273 273 274 274 275 275 276 276 277 277 278 278 278 279 280 280 281 281 282 283 283 284 285 286 286 287 288 289
268 268 268 268 269 269 270 270 271 271 272 272 273 273 273 274 274 275 275 275 276 276 277 277 278 278 279 279 280 280 281 282 282 283 284 284 285 285 286 287 287 288
267 268 268 269 269 269 270 270 271 271 272 272 273 273 274 274 275 275 276 276 277 277 278 278 279 279 279 280 280 281 281 282 282 283 284 284 285 285 286 287 287 288
267 267 268 268 269 270 270 270 271 271 272 272 273 273 274 274 275 275 276 276 277 277 278 278 279 279 280 280 280 281 282 282 283 283 284 284 285 285 286 286 287 288
266 267 267 268 268 269 270 270 271 271 272 272 273 273 274 274 274 275 275 276 276 277 278 278 279 279 279 280 281 281 282 282 283 283 283 284 285 285 286 286 287 288
267 267 267 267 268 268 269 269 270 270 271 271 272 272 273 274 274 275 275 275 276 276 277 278 278 278 279 279 280 280 281 282 282 283 283 284 284 285 285 286 287 288
268 268 268 268 268 268 269 269 269 270 270 270 271 271 272 272 273 274 274 275 275 276 276 277 277 277 278 278 279 279 280 281 282 282 282 283 284 284 285 286 287 288
270 270 270 270 270 270 270 270 270 270 270 270 271 271 271 272 272 272 273 274 275 275 276 276 276 276 277 277 278 279 279 280 280 281 282 283 284 286 287 288 289 291
274 274 274 273 273 273 273 272 272 272 272 272 272 272 272 273 273 274 274 275 276 277 277 277 277 277 277 278 279 280 280 281 282 283 284 285 287 288 289 290 291 292
275 276 276 276 277 277 276 276 276 276 276 276 275 276 276 276 276 277 277 278 278 279 279 280 280 280 281 282 283 283 284 284 284 285 286 287 287 288 289 289 290 291
272 273 274 275 276 277 277 278 278 278 278 278 278 278 279 279 279 279 280 280 281 281 281 282 282 283 284 285 285 285 286 286 286 286 286 287 287 287 288 289 289 289
270 271 272 272 273 274 275 276 277 277 278 278 278 278 279 279 279 280 280 281 281 282 282 282 282 282 283 283 284 284 284 284 285 285 285 285 285 286 286 287 287 287
Height
10771 10771 10772 10773 10773 10772 10771 10770 10770 10769 10768 10767 10766 10765 10764 10764 10764 10764 10765 10764 10764 10763 10761 10759 10757 10754 10752 10750 10748 10747 10745 10742 10738 10733 10731 10729 10726 10722 10719 10715 10712 10711
10763 10763 10763 10764 10764 10763 10763 10763 10763 10762 10760 10759 10758 10758 10756 10756 10756 10756 10755 10754 10753 10752 10751 10750 10748 10746 10744 10742 10740 10739 10738 10735 10731 10726 10724 10723 10719 10715 10712 10707 10704 10703
10755 10755 10755 10755 10754 10754 10754 10754 10754 10753 10752 10751 10750 10750 10749 10749 10748 10748 10746 10745 10743 10742 10740 10740 10739 10737 10735 10733 10731 10730 10729 10727 10724 10719 10716 10715 10712 10708 10704 10700 10698 10696
10746 10746 10746 10746 10745 10744 10744 10745 10745 10743 10743 10743 10742 10741 10742 10742 10740 10739 10738 10736 10734 10732 10731 10730 10728 10727 10725 10723 10722 10721 10720 10718 10715 10710 10708 10707 10703 10700 10697 10693 10691 10689
10736 10736 10737 10736 10736 10735 10735 10735 10734 10733 10734 10734 10733 10733 10734 10733 10732 10731 10730 10728 10726 10724 10722 10720 10718 10716 10715 10713 10712 10711 10710 10708 10705 10701 10700 10698 10694 10691 10688 10685 10683 10680
10726 10726 10727 10727 10726 10725 10725 10725 10723 10723 10723 10724 10724 10724 10723 10723 10723 10722 10721 10719 10718 10716 10713 10711 10709 10706 10705 10703 10702 10701 10699 10697 10695 10692 10691 10689 10685 10682 10680 10676 10674 10671
10715 10716 10716 10716 10716 10715 10715 10714 10713 10713 10713 10713 10714 10714 10712 10713 10713 10712 10711 10710 10709 10708 10705 10702 10700 10697 10695 10693 10693 10691 10689 10687 10685 10682 10681 10679 10676 10674 10671 10668 10666 10663
10705 10705 10706 10706 10705 10705 10705 10704 10703 10703 10702 10703 10704 10702 10701 10702 10702 10701 10700 10700 10700 10698 10696 10693 10690 10688 10685 10684 10684 10682 10679 10677 10674 10672 10671 10669 10667 10665 10662 10660 10658 10656
10694 10694 10694 10694 10694 10694 10694 10693 10693 10692 10692 10692 10693 10691 10690 10691 10690 10690 10689 10688 10688 10687 10685 10683 10681 10678 10676 10675 10674 10672 10669 10667 10664 10662 10661 10659 10657 10656 10653 10651 10650 10648
10681 10682 10682 10682 10682 10682 10682 10682 10682 10681 10681 10681 10681 10680 10679 10679 10678 10678 10677 10676 10676 10675 10674 10673 10670 10668 10666 10665 10663 10660 10658 10656 10654 10652 10651 10649 10647 10645 10643 10641 10640 10639
10669 10670 10669 10669 10669 10669 10670 10669 10669 10670 10669 10670 10670 10669 10668 10667 10666 10666 10665 10665 10665 10664 10663 10662 10659 10657 10656 10654 10651 10648 10646 10645 10643 10642 10640 10639 10638 10635 10633 10630 10629 10628
10656 10658 10657 10657 10656 10656 10656 10656 10656 10657 10657 10657 10657 10657 10657 10655 10654 10654 10653 10654 10653 10652 10651 10650 10648 10647 10645 10641 10638 10636 10635 10633 10632 10631 10630 10629 10627 10625 10622 10620 10618 10616
10643 10644 10644 10644 10644 10643 10643 10643 10643 10644 10645 10644 10644 10645 10644 10642 10641 10641 10641 10642 10642 10640 10639 10638 10637 10635 10632 10629 10625 10623 10622 10622 10621 10620 10619 10618 10616 10613 10611 10609 10607 10604
10628 10629 10630 10631 10631 10630 10629 10629 10630 10630 10631 10631 10630 10631 10630 10629 10628 10629 10628 10629 10628 10627 10626 10625 10625 10623 10619 10615 10612 10610 10609 10609 10608 10608 10607 10606 10604 10602 10600 10597 10595 10592
10613 10614 10616 10616 10617 10617 10616 10616 10616 10616 10617 10617 10616 10616 10616 10616 10616 10616 10616 10615 10614 10614 10613 10613 10612 10609 10605 10601 10599 10598 10596 10595 10595 10594 10593 10593 10592 10590 10588 10586 10583 10580
10598 10599 10601 10601 10601 10602 10603 10603 10603 10603 10602 10602 10602 10602 10602 10603 10603 10603 10602 10601 10600 10600 10600 10599 10599 10595 10591 10587 10586 10584 10582 10581 10581 10580 10580 10579 10579 10577 10575 10573 10570 10568
10583 10584 10585 10585 10585 10586 10588 10589 10590 10589 10588 10587 10587 10587 10588 10589 10590 10589 10587 10586 10586 10586 10586 10585 10584 10581 10576 10573 10571 10569 10567 10567 10567 10566 10566 10565 10565 10563 10561 10558 10556 10555
10567 10569 10570 10570 10570 10571 10572 10573 10574 10574 10573 10572 10573 10573 10573 10574 10575 10574 10573 10571 10571 10571 10571 10571 10569 10566 10561 10558 10555 10553 10552 10552 10552 10552 10551 10551 10550 10548 10546 10544 10542 10541
10551 10554 10556 10555 10555 10555 10556 10557 10557 10558 10557 10557 10558 10558 10558 10559 10559 10558 10558 10557 10556 10557 10557 10557 10555 10550 10545 10542 10540 10538 10535 10535 10537 10537 10537 10536 10535 10533 10530 10529 10527 10526
10532 10536 10539 10540 10540 10540 10541 10541 10541 10541 10541 10541 10542 10543 10543 10542 10542 10542 10543 10542 10541 10542 10543 10543 10541 10534 10528 10526 10526 10525 10521 10519 10520 10521 10522 10522 10521 10518 10515 10514 10512 10510
10512 10516 10518 10520 10522 10523 10524 10524 10524 10524 10525 10524 10526 10528 10527 10527 10526 10525 10526 10525 10525 10526 10528 10529 10526 10519 10514 10512 10511 10510 10508 10506 10506 10506 10506 10507 10507 10504 10500 10498 10496 10495
10492 10495 10497 10500 10502 10503 10505 10505 10505 10506 10506 10507 10509 10510 10510 10511 10511 10510 10510 10509 10508 10508 10510 10513 10512 10504 10499 10498 10496 10495 10494 10493 10493 10492 10491 10492 10492 10489 10484 10481 10478 10478
10468 10471 10473 10476 10478 10480 10482 10483 10484 10485 10486 10487 10489 10490 10489 10490 10491 10493 10493 10492 10491 10489 10489 10492 10492 10487 10482 10480 10478 10477 10476 10476 10476 10476 10476 10477 10477 10474 10469 10465 10463 10462
10450 10451 10452 10453 10454 10455 10457 10459 10461 10462 10464 10466 10468 10469 10468 10466 10467 10470 10471 10471 10470 10469 10467 10468 10469 10465 10461 10459 10457 10456 10456 10456 10457 10457 10460 10461 10461 10458 10455 10453 10451 10449
10436 10436 10437 10437 10437 10437 10437 10438 10439 10440 10442 10445 10446 10447 10447 10446 10445 10447 10448 10448 10447 10448 10447 10447 10447 10445 10441 10439 10438 10436 10436 10437 10438 10439 10442 10444 10443 10442 10442 10441 10440 10438
10422 10422 10422 10422 10423 10424 10423 10421 10421 10422 10424 10425 10426 10427 10428 10428 10427 10427 10429 10429 10427 10427 10428 10428 10429 10429 10427 10425 10424 10422 10420 10421 10422 10423 10425 10426 10426 10427 10430 10430 10428 10426